Terug naar catalogus

CZ-6A DEB

ActiefSSO
NORAD 54298·DEBRIS·🇨🇳 China

Gelanceerd Nov 11, 2022 vanaf Taiyuan Satellite Launch Center

Loading…

Volgende Passages (komende 24 uur)

TLE

VersSource: Space-Track

Epoch: Sep 13, 2026, 17:06 UTC

1 54298U 22151AR  26256.71314491 -.00000043  00000-0 -90898-7 0  9990
2 54298  98.8426 242.7668 0062757 111.5538 249.2335 14.06959142196480

Volg CZ-6A DEB in realtime met AllMySat

Download on the App Store